Location: Camp at the Woods
(43.2055°N, 93.0905°W)
Time: 01:17:28
(UTC+00:00)

Cosmos 2227 Rocket - Pass Details

Date: 22 May 2025
Orbit: 837 x 844 km, 71.0° (Epoch: 12 June)

Event Time Altitude Azimuth Distance (km) Brightness Sun altitude
Exits shadow 08:49:35 26° 226° (SW) 1,586 3.0 -16.4°
Maximum altitude 08:52:41 60° 298° (WNW) 953 2.4 -16.1°
Drops below altitude 10° 08:58:17 10° 18° (NNE) 2,463 5.7 -15.4°
Sets 09:00:47 0° 22° (NNE) 3,403 6.8 -15.1°
